Hourly Data Report for January 09, 2018

All times are specified in Local Standard Time (LST). Add 1 hour to adjust for Daylight Saving Time where and when it is observed.

VANCOUVER INTL A
BRITISH COLUMBIA

49°11'41.000" N
123°11'02.000" W
4.30 m
1108395
71892
YVR

Download Data

Hourly Data (January 2018)
Hourly Data Report for January 9, 2018
Temp Definition
°C
Dew Point Temp Definition
°C
Rel Hum Definition
%
Wind Dir Definition
10's deg

Wind Spd Definition
km/h
Visibility Definition
km
Stn Press Definition
kPa
Hmdx Definition


Wind Chill Definition


Weather Definition


TIME
00:00 Legend Double Dagger 6.2 5.8 98 8 10 19.3 100.16     Rain
01:00 Legend Double Dagger 6.2 5.8 97 9 16 12.9 100.12     Rain
02:00 Legend Double Dagger 6.2 5.8 97 9 18 12.9 100.05     Rain
03:00 Legend Double Dagger 6.2 5.7 97 10 20 16.1 100.03     Rain
04:00 Legend Double Dagger 6.1 5.7 98 10 16 12.9 100.00     Rain
05:00 Legend Double Dagger 6.2 5.8 97 10 13 11.3 99.97     Rain
06:00 Legend Double Dagger 6.6 6.2 97 11 14 11.3 99.95     LegendNANA
07:00 Legend Double Dagger 6.7 6.4 98 10 10 24.1 99.96     Cloudy
08:00 Legend Double Dagger 5.7 5.5 98 12 4 24.1 100.00     LegendNANA
09:00 Legend Double Dagger 6.4 5.0 91 29 23 24.1 100.09     Rain Showers
10:00 Legend Double Dagger 6.3 4.9 91 27 35 24.1 100.17     Mostly Cloudy
11:00 Legend Double Dagger 6.8 4.7 86 27 38 24.1 100.19     LegendNANA
12:00 Legend Double Dagger 7.6 5.3 86 25 26 32.2 100.25     LegendNANA
13:00 Legend Double Dagger 7.0 4.6 85 27 30 48.3 100.20     Mostly Cloudy
14:00 Legend Double Dagger 6.7 4.8 88 25 30 48.3 100.27     LegendNANA
15:00 Legend Double Dagger 6.6 4.7 88 25 21 48.3 100.36     LegendNANA
16:00 Legend Double Dagger 6.4 4.7 89 28 19 32.2 100.43     Cloudy
17:00 Legend Double Dagger 6.2 4.4 88 28 21 32.2 100.48     Rain Showers
18:00 Legend Double Dagger 5.9 4.8 93 26 14 32.2 100.49     LegendNANA
19:00 Legend Double Dagger 6.2 4.5 88 25 17 32.2 100.53     Cloudy
20:00 Legend Double Dagger 5.8 4.7 92 25 13 32.2 100.56     LegendNANA
21:00 Legend Double Dagger 5.7 4.8 94 25 13 32.2 100.58     LegendNANA
22:00 Legend Double Dagger 5.6 4.6 93 22 12 32.2 100.63     Cloudy
23:00 Legend Double Dagger 5.7 4.7 93 23 10 19.3 100.68     Rain Showers

Notes on Data Quality.

Legend

  • E = Estimated
  • M = Missing
  • NA = Not Available
  • ‡ = Partner data that is not subject to review by the National Climate Archives
Date modified: